Salina, KS

12:20 PM CDT on March 28, 2017 (GMT -0500)
Salina Municipal

Weather History for KSLN - August, 2013

Change the Weather History Date:

Thursday, August 1, 2013

  Actual Average Record
Temperature  
Mean Temperature 79 °F 81 °F  
Max Temperature 89 °F 93 °F 110 °F (2011)
Min Temperature 68 °F 70 °F 50 °F (1898)
Degree Days  
Heating Degree Days 0 0  
Month to date heating degree days 0 0  
Since 1 June heating degree days 10 7  
Since 1 July heating degree days 3 0  
Cooling Degree Days 14 16  
Month to date cooling degree days 14 16  
Year to date cooling degree days 985 970  
Since 1 June cooling degree days 844 842  
Growing Degree Days 28 (Base 50)    
Moisture  
Dew Point 67 °F    
Average Humidity 69    
Maximum Humidity 93    
Minimum Humidity 44    
Precipitation  
Precipitation 0.03 in 0.15 in 1.40 in (1999)
Month to date precipitation 0.03 0.15  
Year to date precipitation 21.27 20.54  
Sea Level Pressure  
Sea Level Pressure 30.01 in    
Wind  
Wind Speed 8 mph (SSE)    
Max Wind Speed 21 mph    
Max Gust Speed 28 mph    
Visibility 9 miles    
Events Rain    
T = Trace of Precipitation, MM = Missing Value Source: NWS Daily Summary

Daily Weather History Graph

Daily Weather History Graph

Search for Another Location

Airport or City:

Trip Planner

Search our weather history database for the weather conditions in past years. The results will help you decide how hot, cold, wet, or windy it might be!

Date:

Astronomy

Aug. 01, 2013 Rise Set
Actual Time 6:32 AM CDT 8:41 PM CDT
Civil Twilight 6:02 AM CDT 9:10 PM CDT
Nautical Twilight 5:26 AM CDT 9:46 PM CDT
Astronomical Twilight 4:46 AM CDT 10:26 PM CDT
Moon 2:09 AM CDT (8/1) 4:50 PM CDT (8/1)
Length of Visible Light 15h 08m
Length of Day
14h 09m
Waning Crescent, 23% of the Moon is Illuminated
Aug 1
Waning Crescent
Aug 6
New
Aug 14
First Quarter
Aug 20
Full
Aug 28
Last Quarter

Hourly Weather History & Observations

Time (CDT) Temp. Heat Index Dew Point Humidity Pressure Visibility Wind Dir Wind Speed Gust Speed Precip Events Conditions
12:53 AM 73.9 °F - 68.0 °F 82% 30.08 in 10.0 mi Calm Calm - N/A   Clear
1:53 AM 73.0 °F - 68.0 °F 84% 30.07 in 10.0 mi Calm Calm - N/A   Clear
2:53 AM 72.0 °F - 66.9 °F 84% 30.06 in 10.0 mi Calm Calm - N/A   Clear
3:53 AM 72.0 °F - 68.0 °F 87% 30.06 in 9.0 mi Calm Calm - N/A   Clear
4:53 AM 70.0 °F - 66.9 °F 90% 30.07 in 9.0 mi Calm Calm - N/A   Clear
5:53 AM 68.0 °F - 66.0 °F 93% 30.09 in 7.0 mi WSW 3.5 mph - N/A   Clear
6:53 AM 69.1 °F - 64.9 °F 87% 30.10 in 7.0 mi Calm Calm - N/A   Clear
7:53 AM 71.1 °F - 68.0 °F 90% 30.10 in 5.0 mi Calm Calm - N/A   Clear
8:53 AM 75.9 °F - 70.0 °F 82% 30.09 in 10.0 mi SSE 5.8 mph - N/A   Clear
9:53 AM 80.1 °F 82.9 °F 69.1 °F 69% 30.08 in 10.0 mi SSE 10.4 mph - N/A   Clear
10:53 AM 82.9 °F 87.0 °F 70.0 °F 65% 30.07 in 10.0 mi South 9.2 mph - N/A   Clear
11:53 AM 84.9 °F 88.8 °F 69.1 °F 59% 30.07 in 10.0 mi South 10.4 mph 16.1 mph N/A   Partly Cloudy
12:53 PM 87.1 °F 90.6 °F 68.0 °F 53% 30.04 in 10.0 mi South 10.4 mph 19.6 mph N/A   Partly Cloudy
1:53 PM 87.1 °F 89.9 °F 66.9 °F 51% 30.04 in 10.0 mi SSE 11.5 mph 18.4 mph N/A   Mostly Cloudy
2:53 PM 89.1 °F 92.1 °F 66.9 °F 48% 30.01 in 10.0 mi SSE 11.5 mph 18.4 mph N/A   Partly Cloudy
3:53 PM 88.0 °F 90.7 °F 66.9 °F 49% 29.99 in 10.0 mi SSE 15.0 mph 18.4 mph N/A   Partly Cloudy
4:53 PM 89.1 °F 91.3 °F 66.0 °F 46% 29.95 in 10.0 mi South 12.7 mph 20.7 mph N/A   Clear
5:53 PM 89.1 °F 91.0 °F 64.9 °F 45% 29.93 in 10.0 mi South 12.7 mph 21.9 mph N/A   Clear
6:53 PM 86.0 °F 87.6 °F 64.9 °F 49% 29.90 in 10.0 mi SSE 15.0 mph - N/A   Clear
7:53 PM 84.0 °F 86.3 °F 66.0 °F 55% 29.91 in 10.0 mi South 11.5 mph - N/A   Partly Cloudy
8:53 PM 80.1 °F 82.3 °F 66.9 °F 64% 29.89 in 10.0 mi SSE 10.4 mph - N/A   Clear
9:53 PM 78.1 °F - 68.0 °F 71% 29.88 in 10.0 mi South 9.2 mph - N/A   Clear
10:53 PM 77.0 °F - 66.9 °F 71% 29.86 in 7.0 mi SSE 11.5 mph - N/A   Clear
11:53 PM 78.1 °F - 66.9 °F 68% 29.84 in 10.0 mi South 13.8 mph - 0.00 in Rain Light Rain